[[{"header":{"parameterUnit":"m.s-1","parameterCategory":1,"la1":30.2991,"la2":30.254,"lo1":-89.0895,"lo2":-89.0444,"dy":0.0017,"dx":0.0017,"nx":28,"ny":28,"refTime":"2023-10-18T09:00:00:Z","depth":0,"parameterNumber":2,"parameterNumberName":"U-component_of_WINDS"},"data":[0,0,0,0,0,0,0,0,0,0,0,0,0,0,0,0,0,0,0,0,0,0,0,0,0,0,0,0,0,0,0,0,0,0,0,0,0,0,0,0,0,0,0,0,0,0,0,0,0,0,0,0,0,0,0,0,0,0,2.6177,2.6177,0,2.622,2.622,2.6221,2.6192,2.6191,2.6189,2.6188,2.623,2.6232,2.6234,0,0,0,0,0,0,0,0,0,0,0,0,0,2.6066,2.6069,2.6177,2.6177,2.6178,2.622,2.622,2.6221,2.6192,2.6191,2.6189,2.6188,2.6229,2.6232,2.6235,0,0,0,0,0,0,0,0,0,0,0,0,0,2.6112,2.6069,2.6177,2.6169,2.6168,2.622,2.622,2.6221,2.6193,2.6191,2.6189,2.6187,2.6228,2.6232,2.6235,2.6296,0,0,2.6246,2.6247,0,0,0,0,0,0,0,0,2.611,2.6116,2.6169,2.6169,2.6169,2.6199,2.6197,2.6246,2.6193,2.6183,2.6188,2.6186,2.6221,2.6225,2.6237,2.6298,2.63,2.6246,2.6248,2.625,2.6251,0,0,0,0,0,0,0,2.6107,2.6114,2.6194,2.617,2.617,2.6162,2.6166,2.6206,2.6213,2.6184,2.6182,2.6188,2.622,2.6234,2.6238,2.63,2.6246,2.6249,2.6251,2.6253,2.6409,2.6411,0,0,0,0,0,0,2.6105,2.6112,2.6192,2.6195,2.6134,2.6165,2.617,2.6191,2.6212,2.6213,2.6189,2.6186,2.6229,2.6234,2.6239,2.6309,2.625,2.6253,2.6255,2.6407,2.641,2.6412,0,0,0,0,0,0,2.6102,2.6112,2.6191,2.6153,2.6162,2.6169,2.6193,2.6193,2.6206,2.6216,2.6217,2.6202,2.6228,2.6234,2.6281,2.631,2.6254,2.6258,2.6405,2.6408,2.6411,2.6451,0,0,0,0,0,0,2.6099,2.6111,2.6135,2.6154,2.6165,2.6233,2.6195,2.6195,2.6213,2.6209,2.6228,2.6229,2.6227,2.6276,2.6285,2.6314,2.626,2.6402,2.6406,2.641,2.6447,2.6455,2.6462,0,0,0,0,0,2.6095,2.6145,2.6137,2.6147,2.6195,2.6235,2.6241,2.6237,2.6215,2.6238,2.6244,2.6229,2.6306,2.6281,2.6291,2.6321,2.64,2.6405,2.641,2.6443,2.6453,2.6461,0,0,0,0,0,0,2.613,2.6148,2.6138,2.6196,2.6214,2.623,2.6259,2.6248,2.6273,2.6268,2.6262,2.6266,2.6315,2.6323,2.6295,2.638,2.635,2.6356,2.6372,2.6381,2.6389,2.6384,2.6263,0,0,0,0,0,2.6144,2.6176,2.619,2.6239,2.6249,2.6253,2.627,2.6266,2.6284,2.6291,2.6301,2.6318,2.6346,2.6365,2.6391,2.6449,2.6451,2.6474,2.6481,2.6488,2.6492,2.652,2.653,2.6427,2.6427,2.6427,0,0,2.6174,2.6188,2.6208,2.6246,2.626,2.6291,2.6259,2.6295,2.6317,2.6296,2.634,2.6348,2.6367,2.6419,2.6442,2.6427,2.6522,2.6493,2.6498,2.65,2.6526,2.6536,2.6544,2.643,2.643,2.6429,0,0,2.6243,2.6259,2.6299,2.6314,2.6335,2.6337,2.6347,2.6364,2.6368,2.6413,2.6397,2.6424,2.6473,2.6486,2.6499,2.6573,2.6558,2.6582,2.6619,2.6646,2.6654,2.6661,2.6684,2.6693,2.6587,2.6587,2.6587,0,2.6277,2.6325,2.6322,2.6358,2.6374,2.6357,2.6397,2.6411,2.6439,2.645,2.6433,2.6493,2.6505,2.6558,2.6575,2.6588,2.6597,2.6578,2.6654,2.6661,2.6667,2.6689,2.6698,2.659,2.6589,2.6589,2.6589,0,2.6364,2.6397,2.6428,2.6455,2.6475,2.6513,2.6514,2.6535,2.6528,2.6532,2.6576,2.659,2.6617,2.663,2.6625,2.6681,2.6671,2.6655,2.6624,2.6679,2.6699,2.6708,2.6593,2.6592,2.6592,2.6591,0,0,2.6455,2.648,2.6491,2.6502,2.6524,2.6549,2.6585,2.6612,2.6628,2.6649,2.6677,2.6719,2.6703,2.6718,2.6714,2.6738,2.6791,2.6718,2.6718,2.6728,2.6851,2.6861,2.6871,2.6783,2.6784,2.6785,2.6848,0,2.6524,2.6587,2.6585,2.6644,2.6673,2.6657,2.6688,2.6704,2.6708,2.6732,2.6736,2.6764,2.6743,2.6751,2.6775,2.678,2.6815,2.6775,2.6806,2.6808,2.6799,2.6882,2.6894,2.6952,2.6856,2.6858,2.6859,0,2.6612,2.6634,2.6696,2.6711,2.6723,2.6751,2.6774,2.6799,2.6815,2.6816,2.6833,2.6824,2.6859,2.6829,2.6876,2.6849,2.6862,2.6866,2.6868,2.6868,2.6834,2.6882,2.6971,2.6978,2.6872,2.6871,2.687,0,2.6668,2.6714,2.6756,2.6766,2.6786,2.6805,2.6814,2.6829,2.6845,2.6866,2.6875,2.69,2.6912,2.6931,2.6928,2.6908,2.6975,2.6946,2.6974,2.6974,2.6987,2.6986,2.7076,2.7001,2.7,2.7,2.7,0,2.6742,2.678,2.6781,2.6806,2.6847,2.6844,2.6884,2.6891,2.6904,2.6929,2.6918,2.6941,2.6938,2.6962,2.696,2.6997,2.7004,2.7004,2.7002,2.7003,2.7003,2.7009,2.7004,2.7003,2.7002,2.7002,2.7001,0,2.6811,2.6814,2.6858,2.6872,2.6877,2.6906,2.6918,2.6941,2.6944,2.6976,2.6983,2.6988,2.7014,2.7015,2.7046,2.7044,2.7089,2.7084,2.7083,2.7081,2.7108,2.7104,2.7204,2.7215,2.7135,2.7136,2.7136,0,2.6857,2.6885,2.6902,2.6919,2.6928,2.6955,2.6971,2.6968,2.6985,2.7005,2.7026,2.7052,2.7072,2.7115,2.712,2.7143,2.7137,2.717,2.714,2.7139,2.7134,2.7131,2.7132,2.7175,2.7176,2.7177,2.7178,0,2.6937,2.6936,2.696,2.6984,2.7003,2.7021,2.7038,2.7052,2.7051,2.707,2.7098,2.7113,2.7144,2.7169,2.7191,2.7199,2.7187,2.7187,2.7195,2.7194,2.7191,2.719,2.7095,2.7184,2.7184,2.7183,2.7183,2.7183,2.6993,2.7016,2.7032,2.7058,2.707,2.7086,2.7108,2.7113,2.7136,2.7161,2.7159,2.7188,2.7202,2.723,2.724,2.7262,2.725,2.7262,2.7264,2.7266,2.7267,2.719,2.7266,2.7266,2.7266,2.7266,2.7266,0,2.707,2.7079,2.7103,2.7126,2.7146,2.7135,2.7153,2.717,2.7196,2.7211,2.7231,2.7261,2.7285,2.7292,2.7314,2.733,2.7325,2.7336,2.7333,2.7334,2.7278,2.7268,2.7339,2.7339,2.7339,2.7339,2.7339,2.7339,2.7112,2.7149,2.7151,2.7194,2.7202,2.7231,2.7242,2.7256,2.7267,2.7301,2.7321,2.7325,2.7336,2.7359,2.738,2.7381,2.7388,2.74,2.7399,2.7346,2.7339,2.7332,2.7322,2.7403,2.7403,2.7453,2.7454,2.7454]},{"header":{"parameterUnit":"m.s-1","parameterCategory":1,"la1":30.2991,"la2":30.254,"lo1":-89.0895,"lo2":-89.0444,"dy":0.0017,"dx":0.0017,"nx":28,"ny":28,"refTime":"2023-10-18T09:00:00:Z","depth":0,"parameterNumber":3,"parameterNumberName":"V-component_of_WINDS"},"data":[0,0,0,0,0,0,0,0,0,0,0,0,0,0,0,0,0,0,0,0,0,0,0,0,0,0,0,0,0,0,0,0,0,0,0,0,0,0,0,0,0,0,0,0,0,0,0,0,0,0,0,0,0,0,0,0,0,0,2.9417,2.9417,0,2.9435,2.9435,2.9436,2.9377,2.9375,2.9374,2.9372,2.9389,2.9391,2.9393,0,0,0,0,0,0,0,0,0,0,0,0,0,2.9327,2.9329,2.9417,2.9417,2.9417,2.9435,2.9435,2.9436,2.9378,2.9375,2.9373,2.9371,2.9388,2.939,2.9393,0,0,0,0,0,0,0,0,0,0,0,0,0,2.9358,2.933,2.9417,2.939,2.9388,2.9435,2.9435,2.9436,2.9378,2.9375,2.9373,2.937,2.9387,2.939,2.9393,2.9466,0,0,2.9403,2.9404,0,0,0,0,0,0,0,0,2.9356,2.9361,2.9394,2.9392,2.939,2.9401,2.941,2.9446,2.9379,2.9382,2.9372,2.9369,2.9395,2.9397,2.9406,2.9467,2.9467,2.9403,2.9405,2.9406,2.9407,0,0,0,0,0,0,0,2.9354,2.936,2.9424,2.9395,2.9392,2.9376,2.9378,2.9416,2.9403,2.9381,2.9377,2.938,2.9393,2.9404,2.9406,2.9468,2.9403,2.9406,2.9408,2.9409,2.9586,2.9588,0,0,0,0,0,0,2.9356,2.9359,2.9423,2.9424,2.9366,2.938,2.9382,2.94,2.9402,2.94,2.9383,2.9377,2.94,2.9403,2.9407,2.949,2.9406,2.9409,2.9411,2.9583,2.9586,2.9589,0,0,0,0,0,0,2.9354,2.9362,2.9423,2.9391,2.9397,2.9385,2.9406,2.9402,2.9412,2.9403,2.94,2.9396,2.9398,2.9402,2.9451,2.949,2.9411,2.9414,2.958,2.9584,2.9588,2.9659,0,0,0,0,0,0,2.9352,2.9362,2.939,2.9392,2.9399,2.9468,2.9408,2.9404,2.9418,2.9412,2.9415,2.9413,2.9396,2.9447,2.9454,2.9493,2.9416,2.9576,2.9582,2.9587,2.9653,2.9665,2.9675,0,0,0,0,0,2.9349,2.941,2.9392,2.94,2.9434,2.947,2.9474,2.9454,2.9422,2.9449,2.9443,2.9413,2.9485,2.9452,2.946,2.95,2.9574,2.958,2.9586,2.9648,2.9663,2.9675,0,0,0,0,0,0,2.9413,2.9409,2.939,2.9453,2.9463,2.9461,2.9495,2.9471,2.9489,2.9482,2.9456,2.9457,2.951,2.951,2.9474,2.957,2.9523,2.9532,2.9568,2.9581,2.9592,2.9591,2.9419,0,0,0,0,0,2.9434,2.9465,2.946,2.9516,2.9522,2.9508,2.9523,2.9506,2.9515,2.9518,2.9516,2.9524,2.9548,2.9565,2.9587,2.9653,2.9652,2.9684,2.9695,2.9705,2.9712,2.9745,2.9759,2.961,2.961,2.961,0,0,2.9479,2.9481,2.9502,2.9529,2.9534,2.9565,2.9511,2.9547,2.9569,2.9523,2.9569,2.9568,2.9575,2.9632,2.9658,2.9634,2.9752,2.9713,2.972,2.9722,2.9753,2.9767,2.9779,2.9615,2.9614,2.9613,0,0,2.9576,2.9581,2.9627,2.9634,2.9643,2.9633,2.9644,2.9645,2.9643,2.9688,2.9654,2.968,2.9723,2.9729,2.9738,2.9836,2.9808,2.9844,2.9902,2.9934,2.9946,2.9956,2.9989,3.0002,2.9851,2.9851,2.9851,0,2.963,2.9676,2.9654,2.9691,2.9703,2.9664,2.9709,2.9716,2.9732,2.9741,2.9715,2.9767,2.9769,2.9826,2.985,2.9859,2.987,2.9843,2.9946,2.9956,2.9965,2.9997,3.001,2.9855,2.9855,2.9854,2.9854,0,2.9741,2.9773,2.9809,2.9825,2.9842,2.9883,2.9866,2.9885,2.9867,2.986,2.9906,2.9907,2.9928,2.9941,2.9923,2.9995,2.998,2.9951,2.9903,2.9984,3.0013,3.0025,2.9861,2.986,2.9859,2.9858,0,0,2.9878,2.9881,2.9895,2.9901,2.9907,2.9931,2.997,2.9991,3.0007,3.0019,3.005,3.0086,3.0059,3.0069,3.0052,3.0081,3.0156,3.0047,3.0047,3.0066,3.0233,3.0255,3.0269,3.0138,3.014,3.0142,3.0232,0,2.9972,3.004,3.002,3.0087,3.0116,3.0078,3.0112,3.0118,3.0112,3.0135,3.0127,3.0153,3.0116,3.0121,3.0148,3.0141,3.0189,3.0135,3.0165,3.0167,3.0163,3.0285,3.0308,3.0393,3.0244,3.0246,3.0247,0,3.0091,3.0107,3.0177,3.0177,3.0188,3.0219,3.0236,3.0258,3.0265,3.0258,3.0269,3.0246,3.0283,3.0236,3.0286,3.0249,3.026,3.0259,3.0262,3.0263,3.0211,3.0288,3.042,3.0432,3.0265,3.0264,3.0262,0,3.0182,3.0222,3.0268,3.0275,3.0277,3.0299,3.03,3.0304,3.0318,3.0332,3.034,3.0359,3.0368,3.0383,3.0365,3.0333,3.0416,3.0369,3.0411,3.0411,3.0429,3.0428,3.0563,3.0439,3.0439,3.0438,3.0438,0,3.0288,3.0332,3.0309,3.0338,3.0385,3.0362,3.0409,3.0406,3.041,3.0436,3.0405,3.043,3.0405,3.0428,3.0414,3.0456,3.0461,3.0456,3.0451,3.0458,3.0458,3.0464,3.0457,3.0442,3.0441,3.044,3.044,0,3.0398,3.0385,3.0433,3.043,3.043,3.0465,3.0463,3.0488,3.0479,3.0513,3.052,3.0506,3.0531,3.0514,3.0539,3.053,3.0585,3.0573,3.0583,3.0579,3.0621,3.0617,3.0764,3.0782,3.0647,3.0648,3.065,0,3.0467,3.0499,3.05,3.0516,3.0519,3.0545,3.0558,3.0536,3.0551,3.056,3.0584,3.0607,3.0623,3.0664,3.0656,3.0675,3.0662,3.0712,3.0665,3.067,3.0661,3.0659,3.0661,3.0722,3.0723,3.0724,3.0725,0,3.0588,3.058,3.06,3.0618,3.0635,3.0648,3.0658,3.0673,3.0651,3.0669,3.0694,3.0707,3.0732,3.0754,3.0769,3.077,3.0744,3.0741,3.0751,3.0758,3.0761,3.0758,3.0608,3.0737,3.0736,3.0735,3.0735,3.0734,3.0678,3.0705,3.0709,3.0733,3.0738,3.0748,3.0772,3.0766,3.0787,3.0806,3.0791,3.0821,3.0825,3.0843,3.0847,3.0869,3.0848,3.0864,3.0867,3.0871,3.0876,3.0759,3.0872,3.0871,3.0871,3.0871,3.087,0,3.0797,3.0798,3.082,3.0835,3.0853,3.0828,3.0837,3.0854,3.088,3.0887,3.0904,3.0932,3.0953,3.0946,3.0964,3.0983,3.0971,3.0988,3.0986,3.0986,3.0894,3.0883,3.0997,3.0997,3.0997,3.0997,3.0997,3.0997,3.0861,3.0904,3.0896,3.0941,3.0941,3.097,3.0977,3.0986,3.0991,3.1024,3.1041,3.1036,3.1037,3.1055,3.1073,3.107,3.1078,3.1099,3.1092,3.1006,3.0993,3.0981,3.097,3.1101,3.1101,3.1182,3.1182,3.1183]}]]